STARLINK-32520, 62021

Orbit data source: Space-Track

STARLINK-32520, 62021 is a payload satellite owned by SpaceX/Seattle (US) in LEO that was launched on Mon, 18 Nov 2024 UTC via an FALCON 9 launch vehicle from the Air Force Western Test Range (AFWTR). Payloads include a variety of satellites, spacecraft, and rockets equipped with specific instruments for various scientific and technological missions. These include communications satellites like Starlink; space stations such as the ISS; scientific satellites like the Hubble; Earth observation satellites from companies like Planet Labs, Umbra, and HawkEye 360; GPS; miniature CubeSats for education and research; and military/defense satellites.

Loading next visibility...
STARLINK-32520 details
Identifier
62021, 2024-213P
Orbit
LEO
Last TLE update14 hours ago
Origin
Flag of USSpaceX/Seattle (US)
ManufacturerSpaceX/Seattle
MissionOperational spacecraft
Bus & MotorSTARLINK V2M, Unknown motor
Mass730 kg wet, ~700 kg dry
Launch date (UTC)
2024-11-18 (2 weeks ago)
Launch vehicle
FALCON 9
Launch site
Air Force Western Test Range (AFWTR)
Object type
Payload
Rocket body
Debris
Shape & HBRUnknown
Radar Cross SectionLarge (>1 m²)

Expand to show TLE details & history

TLE from 14 hours ago
0 STARLINK-32520
1 62021U 24213P   24336.91667824 -.01122884  00000-0 -80533-2 0  9993
2 62021  53.1610 166.9920 0000788  73.0271 204.4645 15.75629687  3391
Epoch: 2024-12-01T22:00Z
Definitive object data (Epoch: 2024-12-01T22:00:00.999Z)
Latitude-52.67227°
Longitude48.07549°
Altitude361.598 km
Speed7.692 km/s
True Right ascension05h 57m 18s
True Declination-52° 29' 47"
Sunlit
Object was in daylight at TLE epoch
Visualization TLE readout
Latitude-47.16336°
Longitude69.42671°
Altitude363.352 km
Speed7.691 km/s
Apparent Right ascension02h 02m 51s
Apparent Declination-73° 22' 09"
Sunlit
Object is in daylight
Visualization observer readout
Local Sidereal Time09:33:24
Azimuth201.687° SSW
Elevation-44.373°
Doppler factor1
Orbital elements
Apogee altitude343.631 km
Perigee altitude342.571 km
Semi-major axis6,721.238 km
Eccentricity0.0000788
Inclination53.161°
RAAN166.992°
Arg. of periapsis73.0271°
True anomaly204.46076°
Mean anomaly204.4645°
Eccentric anomaly204.46263°
Mean motion3.93885 °/min
BSTAR-0.0080533
Orbital period91.4 mins
Loading maneuver chart data...
Loading historical data...
Loading historical data...
Loading historical data...
Loading historical data...
Loading historical data...
Loading historical data...
Loading historical data...

STARLINK-32520 Visibility forecast

Observer location: undefined°, undefined

Span
Click to sort rows by Start time (UTC) header in descending order
Start Az.
Max El. time (UTC)
Max El. Az.
Max El.
End time (UTC)
End Az.
5 mins2024-12-02 15:16:37.822Z208.556° SW2024-12-02 15:18:37.822Z161.294° S34.475°2024-12-02 15:21:37.822Z61.432° ENE
|